Regional Weather Roundup
Issued by NWS

Home | Current Version | Previous Version | Graphics & Text | Print | Product List | Glossary On
Versions: 1 2 3 4 5 6 7 8 9 10 11 12 13 14 15 16 17 18 19 20 21 22 23 24 25 26 27 28 29 30 31 32 33 34 35 36 37 38 39 40 41 42 43 44 45 46 47 48 49 50
000
ASUS43 KMKX 241411
RWRWI

WISCONSIN REGIONAL WEATHER ROUNDUP
NATIONAL WEATHER SERVICE MILWAUKEE/SULLIVAN WI
900 AM CDT TUE MAY 24 2016

NOTE: "FAIR" INDICATES FEW OR NO CLOUDS BELOW 12,000 FEET WITH NO
SIGNIFICANT WEATHER AND/OR OBSTRUCTIONS TO VISIBILITY.

WIZ001-002-006>008-014>016-023>028-241500-
NORTHWEST WISCONSIN

CITY           SKY/WX    TMP DP  RH WIND       PRES   REMARKS
SUPERIOR ARPT  DRIZZLE   60  60 100 CALM      29.85R
ASHLAND        CLOUDY    64  63  96 CALM      29.86R
HAYWARD        CLOUDY    66  61  84 S6        29.86R
SIREN          CLOUDY    65  62  91 W6        29.86R
CUMBERLAND     CLOUDY    64  59  82 SW9       29.86R
RICE LAKE      CLOUDY    67  60  78 S8        29.88R
CHETEK         CLOUDY    65  63  91 S5        29.87R
LADYSMITH      CLOUDY    65  63  93 S7        29.89S
EAU CLAIRE     CLOUDY    68  62  81 S7        29.86R
MENOMONIE      MOSUNNY   67  66  99 S6        29.86S
NEW RICHMOND   PTSUNNY   70  60  71 W10G16    29.86R
OSCEOLA        CLOUDY    69  64  83 W9        29.88R
$$

WIZ003>005-009-010-017-018-241500-
NORTH CENTRAL WISCONSIN

CITY           SKY/WX    TMP DP  RH WIND       PRES   REMARKS
MANITOWISH WTR CLOUDY    65  65 100 S7        29.89R
ARBOR VITAE    CLOUDY    66  63  90 S10       29.89S
WOODRUFF       CLOUDY    66  63  90 S10       29.89S
RHINELANDER    CLOUDY    66  61  84 S12       29.91F
EAGLE RIVER      N/A     65  62  90 SW3       29.90S
LAND O LAKES   CLOUDY    62  62  97 S3        29.91S
PHILLIPS       LGT RAIN  64  62  92 S9        29.88S
TOMAHAWK       LGT RAIN  64  62  93 S3        29.91S
MEDFORD        CLOUDY    65  60  85 SE5       29.89F
MERRILL        LGT RAIN  63  61  94 S3        29.91F
$$

WIZ029-030-035-036-043>047-241500-
CENTRAL WISCONSIN

CITY           SKY/WX    TMP DP  RH WIND       PRES   REMARKS
WAUSAU         CLOUDY    65  58  78 CALM      29.89F
MOSINEE        PTSUNNY   63  59  88 S3        29.92S
MARSHFIELD     PTSUNNY   68  56  65 S7        29.89S
STEVENS POINT  CLOUDY    69  53  57 S6        29.91S
WAUPACA        CLOUDY    72  54  52 S7        29.91F
WAUTOMA        CLOUDY    68  54  60 S3        29.91F
WISC RAPIDS    CLOUDY    68  53  58 SW5       29.91S
CAMP DOUGLAS   PTSUNNY   72  61  68 SW5       29.90R
$$

WIZ011>013-019>022-031-037>040-048>050-241500-
NORTHEAST WISCONSIN

CITY           SKY/WX    TMP DP  RH WIND       PRES   REMARKS
ANTIGO         LGT RAIN  60  60  99 CALM      29.93R
SHAWANO        CLOUDY    69  51  52 CALM      29.91F
OCONTO         SUNNY     71  52  51 CALM      29.89F
STURGEON BAY   NOT AVBL
GREEN BAY      SUNNY     73  53  49 S8        29.91S
MANITOWOC      SUNNY     71  55  56 E8        29.93F
APPLETON       PTSUNNY   72  52  49 S8        29.90F
CLINTONVILLE   CLOUDY    70  50  49 CALM      29.90F
OSHKOSH        SUNNY     73  54  51 S8        29.91F
$$

WIZ032>034-041-042-053>061-241500-
SOUTHWEST WISCONSIN

CITY           SKY/WX    TMP DP  RH WIND       PRES   REMARKS
LA CROSSE      CLOUDY    70  57  63 S9        29.89R
SPARTA         MOSUNNY   72  58  61 SW6       29.90S
VIROQUA        CLOUDY    70  57  63 SW6       29.92R
BOSCOBEL       CLOUDY    72  58  61 SW7       29.92R
PRAIRIE DU CHI CLOUDY    69  57  66 CALM      29.92R
PLATTEVILLE    PTSUNNY   70  56  61 SW5       29.94R
$$

WIZ056-057-062-063-064-067-068-241500-
SOUTH CENTRAL WISCONSIN

CITY           SKY/WX    TMP DP  RH WIND       PRES   REMARKS
REEDSBURG      SUNNY     72  56  57 SW8       29.91S
BARABOO/DELLS  SUNNY     72  52  49 SW12      29.92R
LONE ROCK      SUNNY     72  55  55 S5        29.92R
MINERAL POINT  CLOUDY    72  54  53 S7        29.94R
MADISON        PTSUNNY   71  53  52 S10       29.93S
MIDDLETON      MOSUNNY   73  53  49 S9        29.93S
WATERTOWN      MOSUNNY   71  55  55 S10       29.94S
MONROE         SUNNY     70  54  56 SW9       29.95R
JANESVILLE     SUNNY     73  54  49 SW10      29.95S
$$

WIZ051-052-058>065-066-070>072-241500-
SOUTHEAST WISCONSIN

CITY           SKY/WX    TMP DP  RH WIND       PRES   REMARKS
MILWAUKEE      MOSUNNY   73  52  47 SW10      29.96F
WAUKESHA       SUNNY     70  52  52 S6        29.97F
MILWAUKEE/TIMM SUNNY     73  48  40 S7        29.96F
RACINE         SUNNY     74  52  46 SW8       29.98F
BURLINGTON     SUNNY     72  51  46 S12       29.97F
KENOSHA        SUNNY     73  53  49 S10       29.97F
FOND DU LAC    SUNNY     74  53  48 S9        29.92F
SHEBOYGAN      SUNNY     74  52  46 SW9       29.94F
WEST BEND      SUNNY     72  50  46 S7        29.95F
JUNEAU         SUNNY     70  52  52 S9        29.95S
$$

LSZ147-162-241500-
LAKE SUPERIOR

STATION/POSITION TIME  TEMP    WIND        PRES    WAVE
                       AIR SEA DIR/SP/G            HT/PER
                 (UTC) (F)     (DEG/KT/KT) (MB)    (FT/S)
W MID LAKE BUOY  1350   44 38  360/  8/  8 1011.4F   1
DEVILS ISLAND    1400   53     300/  5/  6 1012.6R
SAXON HARBOR     1300   53      CALM  /  2 1010.5
$$

LMZ867-665-643>646-241500-
LAKE MICHIGAN

STATION/POSITION TIME  TEMP    WIND        PRES    WAVE
                       AIR SEA DIR/SP/G            HT/PER
                 (UTC) (F)     (DEG/KT/KT) (MB)    (FT/S)
CHAMBERS ISLAND  1300   66     170/  5/  8 1012.5S
N MID LAKE BUOY  1350   47 44  190/ 10/ 12 1013.2R   2/ 4
NORTHPORT PIER   1330   65     150/  4/ 18 1012.9R
SISTER BAY       1334   73     200/  7/  8   N/A
ALGOMA LAKESHORE 1346             CALM       N/A
KEWAUNEE LAKESHO 1300   55     130/  2/  2 1012.7R
SHEBOYGAN LAKESH 1400   67     180/ 10/ 11 1013.9F
PORT WASHINGTON  1330   64     180/  8/ 13 1015.2S
S MID LAKE BUOY  1350   51 47  180/  8/  8 1015.8R   1
KENOSHA   LAKESH 1400   66     170/ 10/ 11 1014.6F
$$

TC  - TEMPERATURE IN CELSIUS
VSB - VISIBILITY IN STATUTE MILES
WCI - WIND CHILL INDEX
HX  - HEAT INDEX




USA.gov is the U.S. government's official web portal to all federal, state and local government web resources and services.